Wind_Speed
13 15 15 16 17 18 18 17 17 18 18 17 17 18 20 20 18 16 13 11 10 10 9 9 10 9 9 8 6 6 7 7 4 3 2 3 2 0 1 2 2 3 2
14 14 14 14 15 15 15 15 14 14 14 13 15 16 16 16 15 13 12 10 10 10 9 8 8 8 9 9 8 7 8 7 4 1 4 3 4 4 4 4 3 4 5
14 15 15 14 14 14 13 13 13 13 12 11 13 14 14 14 13 12 11 9 9 8 6 7 8 8 7 7 8 7 6 4 5 4 5 9 7 7 6 6 5 7 7
12 14 13 12 12 13 13 12 12 12 12 11 12 11 11 11 10 10 10 9 8 7 6 6 4 5 6 8 8 6 6 7 7 5 2 7 8 6 6 7 7 9 10
12 11 10 10 9 10 11 10 10 11 11 12 12 12 11 10 9 8 7 7 5 4 5 5 6 6 6 7 6 7 9 8 10 6 5 2 5 7 7 8 8 7 10
10 8 9 9 9 9 10 10 9 10 12 13 12 12 12 12 11 10 9 7 7 8 9 8 8 5 6 6 8 11 11 11 13 11 7 4 2 5 6 7 8 10 11
8 8 9 10 10 9 10 10 11 11 12 12 12 13 13 12 10 8 8 8 10 9 8 7 10 9 8 9 9 9 10 11 11 9 7 0 2 4 6 8 10 13 15
8 7 10 11 11 12 11 11 14 13 12 12 12 12 12 12 10 7 7 11 12 10 12 13 16 16 13 11 13 12 9 8 10 9 6 4 1 4 7 10 12 14 18
7 8 10 10 11 10 11 11 12 13 12 9 10 14 12 16 18 22 20 17 15 17 16 15 14 15 12 11 11 10 8 7 7 7 7 6 6 7 8 10 14 17 19
8 10 8 8 11 11 10 10 10 13 15 16 16 16 17 17 20 22 23 23 19 16 16 14 14 12 11 10 8 7 6 7 9 9 9 10 10 10 12 14 17 19 19
9 10 7 8 10 10 10 14 16 16 16 16 16 16 18 19 19 23 23 19 18 18 15 14 14 12 9 5 7 7 7 7 5 7 7 9 12 15 18 21 24 27 29
10 11 9 11 13 15 17 15 14 15 12 14 14 16 18 19 21 19 18 18 16 13 13 13 13 10 10 8 9 7 6 5 7 9 11 13 16 20 23 27 30 33 36
12 12 15 17 16 15 15 15 17 16 16 17 18 20 20 20 18 14 13 14 12 11 10 11 9 10 14 14 13 13 11 9 10 12 13 16 19 23 27 31 34 38 39
13 13 12 12 13 15 18 18 19 16 17 18 20 20 18 17 16 14 13 12 8 9 9 7 8 11 11 13 13 14 14 11 11 12 16 18 22 26 30 33 36 40 37
12 12 12 10 11 12 15 20 20 21 20 20 20 20 17 15 14 14 12 11 10 9 8 9 11 11 13 15 16 16 16 16 16 16 18 21 24 29 32 36 38 41 37
14 13 12 13 12 11 15 20 21 22 22 21 19 17 15 13 11 10 9 9 8 9 8 9 11 14 17 18 19 18 18 18 18 20 19 23 27 30 33 36 38 40 38
16 14 12 12 14 16 16 15 16 16 16 17 17 15 14 11 9 8 7 7 9 8 8 12 15 17 18 18 20 20 20 20 21 21 25 24 26 32 34 37 38 38 37
14 14 13 12 13 15 13 12 12 13 15 14 13 12 11 9 9 7 6 8 8 10 11 12 15 16 19 20 20 21 21 21 21 23 24 29 31 30 35 38 39 39 37
11 12 12 13 13 12 10 10 12 11 11 11 11 10 9 9 8 7 7 6 8 11 13 15 16 16 17 17 18 19 21 22 23 24 26 29 34 35 35 38 39 40 38
11 9 11 10 11 10 11 12 13 9 10 8 9 7 6 6 5 5 5 7 9 10 12 13 13 15 16 19 22 23 23 23 23 25 28 31 33 35 38 38 39 38 39
10 11 10 9 8 9 9 11 12 9 7 7 7 6 4 3 2 3 3 5 8 11 13 14 15 17 18 20 21 22 23 23 24 27 29 32 34 35 37 39 42 43 40
8 10 10 8 8 8 11 11 11 10 8 6 6 4 3 2 1 2 4 8 10 13 15 15 17 17 19 21 22 22 24 24 28 31 33 33 34 35 36 39 40 41 45
9 8 11 9 6 6 9 10 10 10 8 7 6 5 3 1 2 4 7 10 12 13 13 15 15 17 19 20 23 26 30 32 32 31 33 34 37 36 37 39 40 44 46
11 10 9 10 7 4 4 6 9 10 9 8 6 5 3 3 4 7 9 11 12 11 13 14 15 17 19 22 26 27 30 33 34 36 35 35 36 40 37 41 42 44 43
13 13 12 11 11 7 5 5 5 5 5 5 5 4 4 4 4 7 9 11 10 12 13 12 13 16 20 23 26 29 31 34 35 39 42 46 42 40 40 41 42 46 39
16 14 13 12 10 10 8 7 7 6 5 3 3 3 4 3 5 7 7 7 9 10 11 11 13 16 20 23 26 29 33 35 39 43 46 47 44 41 46 42 41 44 37
Wind_Direction
83 81 84 85 84 88 95 98 97 97 97 100 103 101 107 114 119 118 118 116 114 104 99 88 86 84 81 74 66 67 73 72 66 44 107 150 151 154 289 217 164 178 244
79 80 77 77 82 86 90 94 100 103 104 107 104 100 100 101 104 106 105 105 100 102 100 90 80 65 47 40 42 52 55 47 41 284 232 221 219 224 229 236 248 251 259
80 82 82 81 88 93 98 104 105 106 109 108 104 104 102 100 100 101 104 105 99 105 94 71 48 32 29 44 52 43 56 32 20 16 226 216 219 222 233 242 252 259 270
82 79 83 88 91 96 100 100 99 100 99 98 101 106 110 115 118 121 123 115 111 106 99 70 44 34 46 43 49 54 36 356 348 345 357 211 215 225 233 255 264 272 276
78 77 80 81 84 94 95 81 77 83 91 91 101 109 119 118 119 125 123 119 113 103 79 88 77 62 65 60 57 52 20 18 9 336 347 275 214 230 248 255 256 260 269
80 82 79 80 74 75 87 84 82 84 92 103 107 113 108 107 112 117 123 123 104 83 83 72 69 68 74 62 58 38 38 38 22 8 337 335 250 244 255 255 252 247 250
83 82 81 76 75 78 86 80 87 93 100 101 100 100 100 103 106 113 124 120 99 90 96 87 63 63 76 67 52 53 49 42 36 38 28 322 290 283 279 282 282 279 270
87 84 78 84 86 92 87 80 79 77 84 93 93 94 94 91 89 102 114 107 106 105 92 81 74 78 78 66 56 50 41 28 31 47 72 77 348 314 309 301 300 297 290
85 79 77 81 81 90 80 68 72 77 92 86 99 93 98 102 93 101 104 105 103 101 99 87 81 75 72 61 51 42 25 16 15 28 38 31 7 353 344 320 316 316 305
76 76 85 80 73 76 77 57 81 95 91 90 110 105 100 110 104 103 106 109 104 98 96 88 79 67 58 54 41 29 10 13 26 20 17 11 2 347 342 340 333 329 320
75 85 97 89 80 75 59 79 88 109 92 99 110 104 99 107 106 105 98 96 95 96 88 80 70 57 41 29 19 19 11 17 21 25 11 1 355 350 347 342 338 331 325
72 84 90 96 95 94 101 91 93 108 87 95 112 107 102 106 105 107 90 87 95 85 78 69 55 41 44 45 41 21 5 8 21 14 4 0 351 343 339 336 333 331 325
73 92 89 100 97 95 111 89 95 98 97 103 105 111 107 98 103 104 101 100 93 74 69 65 50 38 32 26 23 14 8 356 354 357 355 348 342 336 335 334 334 333 330
86 92 90 94 100 95 104 95 90 101 105 107 114 117 111 109 96 98 94 89 81 81 79 54 29 25 19 19 16 11 8 358 344 349 341 341 336 335 333 333 337 341 336
89 93 84 88 94 98 98 94 98 99 97 101 113 112 110 101 91 87 76 66 61 58 50 24 12 3 5 7 7 5 359 1 350 349 340 338 336 334 334 336 340 344 341
97 97 86 89 84 98 108 95 96 94 94 98 106 110 105 92 82 74 63 53 47 40 23 1 359 1 5 360 359 358 355 357 352 342 343 338 336 334 336 337 341 343 346
86 103 101 97 92 104 107 96 97 95 94 98 97 98 97 94 89 83 71 51 41 31 19 10 7 5 358 358 356 355 355 351 349 342 337 336 335 334 334 335 340 343 347
86 101 115 111 111 111 108 103 112 109 108 102 103 103 97 89 75 69 62 43 32 22 13 5 359 356 357 356 354 350 349 345 346 341 338 335 334 334 334 336 339 340 345
98 99 121 132 129 129 117 116 126 124 116 112 107 105 102 92 78 68 55 39 26 14 6 2 356 357 356 350 352 356 351 348 346 343 338 338 337 336 333 333 338 340 346
123 106 109 131 145 142 135 130 143 125 129 129 127 121 110 99 81 66 45 34 15 1 358 358 359 2 5 0 3 358 356 353 349 344 346 345 342 340 337 336 334 341 344
147 134 119 130 148 156 153 151 156 163 175 155 152 151 158 147 96 44 13 26 9 359 6 9 10 7 10 8 7 8 1 359 357 358 353 348 347 344 343 341 343 340 341
175 159 143 134 148 163 170 173 172 177 188 188 181 181 192 167 91 22 12 23 11 7 8 11 12 13 14 13 11 8 13 14 11 6 0 350 346 346 348 350 347 345 340
199 185 163 155 149 161 179 177 179 182 187 199 206 206 232 294 342 2 10 17 17 12 17 21 18 20 23 23 20 23 21 17 12 8 359 353 348 344 345 351 350 346 341
198 205 195 170 171 173 184 185 190 191 191 208 222 236 258 287 327 358 1 6 17 23 28 28 37 37 29 25 24 23 17 13 8 3 3 355 352 352 346 350 350 348 343
212 216 208 196 183 187 218 225 217 212 204 214 232 257 281 288 333 344 359 4 16 31 34 52 48 35 29 26 22 18 15 12 7 2 357 354 349 347 346 352 352 348 346
223 223 220 213 203 192 206 233 239 241 241 242 250 253 270 309 346 344 358 9 35 45 42 45 35 29 23 19 13 11 12 10 5 1 357 354 351 346 347 355 352 350 345
Height
5878 5878 5879 5879 5878 5877 5876 5877 5877 5877 5878 5879 5879 5879 5880 5880 5880 5881 5883 5883 5883 5883 5883 5883 5883 5883 5885 5884 5884 5883 5882 5881 5881 5881 5883 5884 5884 5884 5885 5886 5886 5887 5888
5881 5881 5881 5881 5880 5879 5878 5878 5878 5879 5880 5880 5881 5882 5882 5882 5883 5883 5883 5884 5884 5884 5885 5885 5885 5886 5886 5886 5886 5885 5885 5885 5884 5883 5883 5883 5884 5884 5885 5886 5887 5888 5889
5883 5882 5882 5883 5883 5881 5880 5879 5879 5881 5881 5883 5884 5885 5885 5885 5885 5885 5886 5886 5886 5887 5887 5887 5887 5888 5888 5887 5886 5886 5886 5887 5886 5885 5883 5884 5885 5885 5887 5887 5887 5888 5888
5887 5885 5885 5884 5884 5882 5881 5881 5881 5882 5884 5885 5887 5887 5887 5887 5888 5888 5888 5888 5888 5888 5888 5890 5890 5889 5888 5888 5888 5887 5886 5885 5885 5884 5883 5884 5885 5886 5886 5886 5887 5888 5888
5889 5888 5887 5886 5885 5885 5884 5884 5885 5886 5887 5888 5888 5888 5888 5889 5889 5889 5889 5889 5889 5889 5890 5891 5891 5891 5891 5890 5889 5889 5888 5887 5886 5885 5884 5884 5884 5885 5885 5885 5886 5887 5887
5891 5891 5890 5888 5888 5888 5888 5888 5889 5890 5890 5890 5890 5890 5890 5890 5891 5891 5890 5890 5891 5892 5893 5892 5892 5892 5892 5892 5892 5891 5890 5889 5888 5886 5885 5885 5886 5886 5887 5887 5887 5886 5886
5893 5893 5892 5891 5890 5891 5891 5891 5892 5892 5892 5892 5891 5892 5891 5892 5892 5892 5892 5893 5893 5894 5895 5895 5894 5893 5893 5894 5893 5893 5892 5892 5891 5889 5888 5888 5888 5888 5888 5888 5888 5887 5886
5895 5894 5894 5893 5892 5893 5894 5893 5894 5894 5893 5893 5893 5893 5893 5894 5893 5892 5893 5895 5895 5896 5897 5897 5896 5896 5896 5896 5895 5894 5893 5893 5891 5890 5890 5889 5889 5888 5888 5888 5887 5886 5885
5897 5897 5896 5895 5895 5895 5896 5897 5896 5896 5895 5895 5895 5895 5895 5895 5895 5895 5896 5897 5899 5900 5899 5900 5900 5899 5898 5897 5896 5895 5895 5894 5893 5892 5891 5890 5889 5888 5888 5887 5885 5883 5882
5899 5899 5899 5898 5898 5898 5899 5899 5898 5898 5898 5897 5897 5898 5899 5898 5898 5898 5899 5900 5902 5902 5903 5903 5902 5901 5900 5898 5897 5896 5895 5893 5892 5891 5890 5890 5889 5888 5886 5885 5883 5881 5880
5902 5902 5901 5901 5902 5901 5900 5900 5900 5901 5902 5902 5902 5902 5903 5904 5904 5904 5904 5905 5905 5906 5906 5905 5905 5904 5903 5902 5900 5897 5896 5894 5894 5893 5892 5891 5889 5887 5885 5883 5881 5878 5876
5907 5906 5904 5904 5905 5905 5905 5904 5904 5905 5905 5905 5905 5906 5906 5907 5908 5909 5909 5910 5910 5910 5909 5909 5908 5907 5906 5904 5901 5899 5898 5896 5895 5893 5892 5890 5887 5885 5883 5880 5877 5874 5870
5911 5910 5909 5909 5909 5909 5909 5909 5908 5908 5908 5908 5909 5910 5911 5911 5912 5913 5913 5913 5913 5913 5913 5911 5910 5909 5907 5905 5903 5901 5899 5898 5896 5894 5892 5889 5887 5883 5880 5875 5872 5868 5863
5915 5914 5914 5913 5913 5913 5913 5914 5913 5912 5913 5913 5913 5914 5914 5915 5916 5917 5917 5917 5917 5915 5914 5914 5913 5911 5909 5907 5904 5902 5900 5898 5896 5894 5891 5888 5885 5881 5876 5871 5867 5862 5855
5918 5918 5917 5917 5917 5917 5918 5918 5918 5917 5917 5917 5917 5917 5918 5919 5919 5919 5919 5920 5919 5918 5917 5915 5914 5912 5910 5908 5906 5903 5900 5897 5894 5892 5888 5885 5882 5877 5871 5866 5861 5855 5848
5921 5922 5922 5921 5920 5920 5921 5921 5921 5921 5921 5921 5921 5921 5921 5922 5922 5921 5921 5921 5920 5920 5919 5917 5915 5912 5910 5907 5905 5902 5899 5896 5892 5888 5887 5883 5878 5873 5867 5862 5857 5851 5843
5922 5924 5924 5924 5923 5923 5924 5924 5924 5924 5924 5924 5924 5925 5925 5925 5925 5924 5924 5924 5923 5921 5920 5918 5915 5913 5910 5908 5904 5900 5898 5894 5891 5887 5882 5880 5877 5869 5864 5858 5853 5846 5839
5925 5926 5926 5926 5926 5926 5927 5926 5926 5926 5927 5927 5927 5927 5927 5927 5927 5927 5927 5926 5925 5923 5922 5919 5917 5915 5911 5907 5904 5901 5897 5894 5890 5885 5881 5874 5870 5868 5860 5854 5848 5841 5834
5927 5927 5928 5929 5929 5930 5929 5929 5929 5929 5929 5929 5929 5930 5929 5929 5929 5928 5928 5928 5927 5925 5922 5921 5918 5915 5912 5909 5905 5902 5897 5892 5888 5884 5879 5874 5867 5861 5857 5850 5843 5835 5829
5929 5929 5931 5931 5932 5932 5932 5932 5933 5933 5933 5932 5931 5931 5930 5930 5930 5930 5930 5929 5927 5926 5924 5922 5918 5916 5913 5909 5904 5900 5896 5892 5888 5884 5878 5872 5864 5857 5849 5843 5838 5832 5823
5932 5931 5932 5933 5934 5934 5934 5934 5935 5936 5936 5935 5934 5933 5933 5932 5931 5930 5930 5930 5927 5926 5924 5921 5919 5915 5912 5909 5905 5902 5897 5894 5889 5882 5875 5868 5862 5855 5847 5839 5830 5822 5818
5933 5933 5933 5935 5936 5936 5936 5936 5936 5935 5936 5936 5936 5935 5935 5933 5932 5931 5931 5930 5928 5926 5924 5920 5918 5916 5913 5910 5906 5903 5898 5895 5887 5881 5875 5868 5861 5854 5845 5837 5828 5818 5809
5934 5935 5934 5935 5938 5938 5938 5938 5938 5937 5937 5937 5937 5937 5937 5935 5934 5933 5931 5930 5928 5926 5924 5922 5920 5917 5913 5911 5907 5903 5897 5891 5886 5882 5875 5868 5859 5851 5842 5834 5826 5814 5804
5934 5935 5935 5935 5937 5940 5941 5940 5939 5938 5938 5938 5938 5938 5938 5937 5936 5935 5933 5931 5930 5927 5925 5923 5921 5919 5915 5911 5907 5902 5897 5892 5887 5880 5875 5868 5858 5849 5840 5829 5821 5813 5801
5934 5935 5936 5936 5936 5939 5941 5942 5942 5940 5940 5939 5939 5939 5939 5938 5937 5935 5934 5933 5932 5929 5927 5924 5922 5919 5916 5912 5907 5903 5898 5893 5886 5879 5870 5860 5852 5844 5835 5827 5818 5807 5798
5933 5935 5936 5937 5937 5937 5939 5942 5943 5942 5942 5941 5941 5940 5939 5938 5937 5936 5935 5934 5932 5931 5929 5926 5923 5919 5915 5912 5908 5903 5897 5891 5884 5876 5868 5859 5849 5840 5832 5824 5814 5804 5794